Regional Weather Roundup
Issued by NWS Albany, NY

Home | Current Version | Previous Version | Text Only | Print | Product List | Glossary On
Versions: 1 2 3 4 5 6 7 8 9 10 11 12 13 14 15 16 17 18 19 20 21 22 23 24 25 26 27 28 29 30 31 32 33 34 35 36 37 38 39 40 41 42 43 44 45 46 47 48 49 50
000
ASUS41 KALY 301010
RWRALY

NEW YORK STATE HOURLY WEATHER ROUNDUP
NATIONAL WEATHER SERVICE ALBANY NY
500 AM EST FRI JAN 30 2015

NOTE: "FAIR" INDICATES FEW OR NO CLOUDS BELOW 12,000 FEET WITH NO
SIGNIFICANT WEATHER AND/OR NO OBSTRUCTIONS TO VISIBILITY.

NYZ032-033-038>043-046>054-057>066-NYZ062>081-301100-
EAST


CITY           SKY/WX    TMP DP  RH WIND       PRES   REMARKS
ALBANY         LGT SNOW  28  24  85 S8        29.84F FOG     WCI  20
GLENS FALLS    LGT SNOW  27  24  89 SW7       29.83S FOG     WCI  19
POUGHKEEPSIE   LGT SNOW  29  26  89 CALM      29.85F FOG
NEWBURGH       CLOUDY    25  25 100 CALM      29.85F FOG
MONTGOMERY     LGT SNOW  25  24  96 CALM      29.83F FOG
WHITE PLAINS   DRIZZLE   31  29  92 CALM      29.83F
ISLIP          CLOUDY    33  30  88 CALM      29.84F
NEW YORK CITY  FLURRIES  35  27  72 SW8       29.85F WCI  29
CENTRAL PARK   CLOUDY    35  27  72 VRB3      29.87F
$$

NYZ005>009-017-018-044>046-055-056-301100-
CENTRAL


CITY           SKY/WX    TMP DP  RH WIND       PRES   REMARKS
FULTON         LGT SNOW  29  24  82 NW12      29.85R WCI  19
SYRACUSE       LGT SNOW  26  26 100 W10       29.84R FOG     WCI  16
ROME           LGT SNOW  26  24  92 CALM      29.83F FOG
ELMIRA         LGT SNOW  29  25  85 CALM      29.84S FOG
BINGHAMTON     CLOUDY    24  22  91 W8        29.77S WCI  15
MONTICELLO     CLOUDY    21  21 100 CALM      29.79S
$$

NYZ026>034-041>043-301100-
NORTH


CITY           SKY/WX    TMP DP  RH WIND       PRES   REMARKS
WATERTOWN      LGT SNOW  28  23  81 NW10      29.85R WCI  19
FORT DRUM      NOT AVBL
MASSENA        LGT SNOW  25  24  96 NW13      29.81R FOG     WCI  14
SARANAC LAKE   LGT SNOW  23  21  92 SW5       29.69S FOG     WCI  17
PLATTSBURGH    LGT SNOW  26  24  92 S7        29.79S FOG     WCI  18
$$

NYZ001>004-010>016-019>021-301100-
WEST


CITY           SKY/WX    TMP DP  RH WIND       PRES   REMARKS
NIAGARA FALLS  MIX PCPN  27  21  78 NW13      29.95R WCI  16
BUFFALO        FLURRIES  28  22  78 NW13      29.94R WCI  17
DUNKIRK        CLOUDY    28  23  81 W12G25    29.98R WCI  18
JAMESTOWN      CLOUDY    25  21  86 NW17G23   29.92R WCI  11
WELLSVILLE     LGT SNOW  24  19  81 NW17      29.85R WCI  11
ROCHESTER      LGT SNOW  30  27  88 NW10      29.90R FOG     WCI  21
PENN YAN       LGT SNOW  29  23  78 W12       29.85S WCI  19
$$

             KEY
       WCI = WIND CHILL INDEX
       VSB = VISIBILITY
       HX  = HEAT INDEX
$$


USA.gov is the U.S. government's official web portal to all federal, state and local government web resources and services.